Retour au catalogue

STARLINK-37225

ActifCommunicationsVLEO
NORAD 68714·PAYLOAD·🇺🇸 United States

Lancé Apr 14, 2026 depuis Cape Canaveral Space Force Station

Loading…

Prochains Passages (prochaines 24 heures)

TLE

FraisSource: CelesTrak SupGP

Époque: Sep 15, 2026, 04:26 UTC

1 68714C 26081R   26258.18520833 -.00055370  00000+0 -16359-2 0  2581
2 68714  53.1586 230.5665 0001324  89.1668 232.0307 15.34417556    10

Suivez STARLINK-37225 en temps réel avec AllMySat

Download on the App Store